�v������,,�����i�g�j,�����t���O,�g�[�i�g�j,�����t���O,,�����iMJ�j,�����t���O,�g�[�iMJ�j,�����t���O
2004/11/1,0:00:00,0,0,0,0,,0,0,0,0
2004/11/1,0:15:00,0,0,0,0,,0,0,0,0
2004/11/1,0:30:00,0,0,0,0,,0,0,0,0
2004/11/1,0:45:00,0,0,0,0,,0,0,0,0
2004/11/1,1:00:00,0,0,0,0,,0,0,0,0
2004/11/1,1:15:00,0,0,0,0,,0,0,0,0
2004/11/1,1:30:00,0,0,0,0,,0,0,0,0
2004/11/1,1:45:00,0,0,0,0,,0,0,0,0
2004/11/1,2:00:00,0,0,0,0,,0,0,0,0
2004/11/1,2:15:00,0,0,0,0,,0,0,0,0
2004/11/1,2:30:00,0,0,0,0,,0,0,0,0
2004/11/1,2:45:00,0,0,0,0,,0,0,0,0
2004/11/1,3:00:00,0,0,0,0,,0,0,0,0
2004/11/1,3:15:00,0,0,0,0,,0,0,0,0
2004/11/1,3:30:00,0,0,0,0,,0,0,0,0
2004/11/1,3:45:00,0,0,0,0,,0,0,0,0
2004/11/1,4:00:00,0,0,0,0,,0,0,0,0
2004/11/1,4:15:00,0,0,0,0,,0,0,0,0
2004/11/1,4:30:00,0,0,0,0,,0,0,0,0
2004/11/1,4:45:00,0,0,0,0,,0,0,0,0
2004/11/1,5:00:00,0,0,0,0,,0,0,0,0
2004/11/1,5:15:00,0,0,0,0,,0,0,0,0
2004/11/1,5:30:00,0,0,0,0,,0,0,0,0
2004/11/1,5:45:00,0,0,0,0,,0,0,0,0
2004/11/1,6:00:00,0,0,0,0,,0,0,0,0
2004/11/1,6:15:00,0,0,0,0,,0,0,0,0
2004/11/1,6:30:00,0,0,0,0,,0,0,0,0
2004/11/1,6:45:00,0.16,0,0.03,0,,5.9,0,1.1,0
2004/11/1,7:00:00,0.195,0,0.205,0,,7.2,0,7.6,0
2004/11/1,7:15:00,0,0,0.257,0,,0,0,9.5,0
2004/11/1,7:30:00,0,0,0,0,,0,0,0,0
2004/11/1,7:45:00,0,0,0,0,,0,0,0,0
2004/11/1,8:00:00,0,0,0,0,,0,0,0,0
2004/11/1,8:15:00,0,0,0,0,,0,0,0,0
2004/11/1,8:30:00,0,0,0,0,,0,0,0,0
2004/11/1,8:45:00,0,0,0,0,,0,0,0,0
2004/11/1,9:00:00,0,0,0,0,,0,0,0,0
2004/11/1,9:15:00,0,0,0,0,,0,0,0,0
2004/11/1,9:30:00,0,0,0,0,,0,0,0,0
2004/11/1,9:45:00,0,0,0,0,,0,0,0,0
2004/11/1,10:00:00,0,0,0,0,,0,0,0,0
2004/11/1,10:15:00,0,0,0,0,,0,0,0,0
2004/11/1,10:30:00,0,0,0,0,,0,0,0,0
2004/11/1,10:45:00,0,0,0,0,,0,0,0,0
2004/11/1,11:00:00,0,0,0,0,,0,0,0,0
2004/11/1,11:15:00,0,0,0,0,,0,0,0,0
2004/11/1,11:30:00,0,0,0,0,,0,0,0,0
2004/11/1,11:45:00,0,0,0,0,,0,0,0,0
2004/11/1,12:00:00,0,0,0,0,,0,0,0,0
2004/11/1,12:15:00,0,0,0,0,,0,0,0,0
2004/11/1,12:30:00,0,0,0,0,,0,0,0,0
2004/11/1,12:45:00,0,0,0,0,,0,0,0,0
2004/11/1,13:00:00,0,0,0,0,,0,0,0,0
2004/11/1,13:15:00,0,0,0,0,,0,0,0,0
2004/11/1,13:30:00,0,0,0,0,,0,0,0,0
2004/11/1,13:45:00,0,0,0,0,,0,0,0,0
2004/11/1,14:00:00,0,0,0,0,,0,0,0,0
2004/11/1,14:15:00,0,0,0,0,,0,0,0,0
2004/11/1,14:30:00,0,0,0,0,,0,0,0,0
2004/11/1,14:45:00,0,0,0,0,,0,0,0,0
2004/11/1,15:00:00,0,0,0,0,,0,0,0,0
2004/11/1,15:15:00,0,0,0,0,,0,0,0,0
2004/11/1,15:30:00,0,0,0,0,,0,0,0,0
2004/11/1,15:45:00,0,0,0,0,,0,0,0,0
2004/11/1,16:00:00,0,0,0,0,,0,0,0,0
2004/11/1,16:15:00,0,0,0,0,,0,0,0,0
2004/11/1,16:30:00,0,0,0,0,,0,0,0,0
2004/11/1,16:45:00,0.49,0,0,0,,18,0,0,0
2004/11/1,17:00:00,0.444,0,0.061,0,,16.3,0,2.3,0
2004/11/1,17:15:00,0,0,0.047,0,,0,0,1.7,0
2004/11/1,17:30:00,0,0,0.052,0,,0,0,1.9,0
2004/11/1,17:45:00,0,0,0.008,0,,0,0,0.3,0
2004/11/1,18:00:00,0,0,0.059,0,,0,0,2.2,0
2004/11/1,18:15:00,0,0,0,0,,0,0,0,0
2004/11/1,18:30:00,0,0,0.084,0,,0,0,3.1,0
2004/11/1,18:45:00,0,0,0,0,,0,0,0,0
2004/11/1,19:00:00,0,0,0.075,0,,0,0,2.8,0
2004/11/1,19:15:00,0,0,0.105,0,,0,0,3.9,0
2004/11/1,19:30:00,0,0,0,0,,0,0,0,0
2004/11/1,19:45:00,0,0,0.057,0,,0,0,2.1,0
2004/11/1,20:00:00,0,0,0.007,0,,0,0,0.3,0
2004/11/1,20:15:00,0,0,0,0,,0,0,0,0
2004/11/1,20:30:00,0,0,0,0,,0,0,0,0
2004/11/1,20:45:00,0,0,0,0,,0,0,0,0
2004/11/1,21:00:00,0,0,0.01,0,,0,0,0.4,0
2004/11/1,21:15:00,0,0,0.049,0,,0,0,1.8,0
2004/11/1,21:30:00,0,0,0,0,,0,0,0,0
2004/11/1,21:45:00,0,0,0,0,,0,0,0,0
2004/11/1,22:00:00,0,0,0.02,0,,0,0,0.7,0
2004/11/1,22:15:00,0,0,0,0,,0,0,0,0
2004/11/1,22:30:00,0,0,0.019,0,,0,0,0.7,0
2004/11/1,22:45:00,0,0,0,0,,0,0,0,0
2004/11/1,23:00:00,0,0,0,0,,0,0,0,0
2004/11/1,23:15:00,0,0,0,0,,0,0,0,0
2004/11/1,23:30:00,0,0,0,0,,0,0,0,0
2004/11/1,23:45:00,0,0,0,0,,0,0,0,0
2004/11/2,0:00:00,0,0,0,0,,0,0,0,0
2004/11/2,0:15:00,0,0,0,0,,0,0,0,0
2004/11/2,0:30:00,0,0,0,0,,0,0,0,0
2004/11/2,0:45:00,0,0,0,0,,0,0,0,0
2004/11/2,1:00:00,0,0,0,0,,0,0,0,0
2004/11/2,1:15:00,0,0,0,0,,0,0,0,0
2004/11/2,1:30:00,0,0,0,0,,0,0,0,0
2004/11/2,1:45:00,0,0,0,0,,0,0,0,0
2004/11/2,2:00:00,0,0,0,0,,0,0,0,0
2004/11/2,2:15:00,0,0,0,0,,0,0,0,0
2004/11/2,2:30:00,0,0,0,0,,0,0,0,0
2004/11/2,2:45:00,0,0,0,0,,0,0,0,0
2004/11/2,3:00:00,0,0,0,0,,0,0,0,0
2004/11/2,3:15:00,0,0,0,0,,0,0,0,0
2004/11/2,3:30:00,0,0,0,0,,0,0,0,0
2004/11/2,3:45:00,0,0,0,0,,0,0,0,0
2004/11/2,4:00:00,0,0,0,0,,0,0,0,0
2004/11/2,4:15:00,0,0,0,0,,0,0,0,0
2004/11/2,4:30:00,0,0,0,0,,0,0,0,0
2004/11/2,4:45:00,0,0,0,0,,0,0,0,0
2004/11/2,5:00:00,0,0,0,0,,0,0,0,0
2004/11/2,5:15:00,0,0,0,0,,0,0,0,0
2004/11/2,5:30:00,0,0,0,0,,0,0,0,0
2004/11/2,5:45:00,0,0,0,0,,0,0,0,0
2004/11/2,6:00:00,0,0,0,0,,0,0,0,0
2004/11/2,6:15:00,0,0,0,0,,0,0,0,0
2004/11/2,6:30:00,0,0,0,0,,0,0,0,0
2004/11/2,6:45:00,0,0,0,0,,0,0,0,0
2004/11/2,7:00:00,0,0,0,0,,0,0,0,0
2004/11/2,7:15:00,0,0,0,0,,0,0,0,0
2004/11/2,7:30:00,0,0,0,0,,0,0,0,0
2004/11/2,7:45:00,0,0,0,0,,0,0,0,0
2004/11/2,8:00:00,0,0,0,0,,0,0,0,0
2004/11/2,8:15:00,0,0,0,0,,0,0,0,0
2004/11/2,8:30:00,0,0,0,0,,0,0,0,0
2004/11/2,8:45:00,0,0,0,0,,0,0,0,0
2004/11/2,9:00:00,0,0,0,0,,0,0,0,0
2004/11/2,9:15:00,0,0,0,0,,0,0,0,0
2004/11/2,9:30:00,0,0,0,0,,0,0,0,0
2004/11/2,9:45:00,0,0,0.001,0,,0,0,0,0
2004/11/2,10:00:00,0,0,0,0,,0,0,0,0
2004/11/2,10:15:00,0,0,0,0,,0,0,0,0
2004/11/2,10:30:00,0,0,0,0,,0,0,0,0
2004/11/2,10:45:00,0,0,0,0,,0,0,0,0
2004/11/2,11:00:00,0,0,0,0,,0,0,0,0
2004/11/2,11:15:00,0,0,0,0,,0,0,0,0
2004/11/2,11:30:00,0,0,0,0,,0,0,0,0
2004/11/2,11:45:00,0,0,0,0,,0,0,0,0
2004/11/2,12:00:00,0,0,0,0,,0,0,0,0
2004/11/2,12:15:00,0,0,0,0,,0,0,0,0
2004/11/2,12:30:00,0,0,0,0,,0,0,0,0
2004/11/2,12:45:00,0,0,0,0,,0,0,0,0
2004/11/2,13:00:00,0,0,0,0,,0,0,0,0
2004/11/2,13:15:00,0,0,0,0,,0,0,0,0
2004/11/2,13:30:00,0,0,0,0,,0,0,0,0
2004/11/2,13:45:00,0,0,0,0,,0,0,0,0
2004/11/2,14:00:00,0,0,0,0,,0,0,0,0
2004/11/2,14:15:00,0,0,0,0,,0,0,0,0
2004/11/2,14:30:00,0,0,0,0,,0,0,0,0
2004/11/2,14:45:00,0,0,0,0,,0,0,0,0
2004/11/2,15:00:00,0,0,0,0,,0,0,0,0
2004/11/2,15:15:00,0,0,0,0,,0,0,0,0
2004/11/2,15:30:00,0,0,0,0,,0,0,0,0
2004/11/2,15:45:00,0,0,0,0,,0,0,0,0
2004/11/2,16:00:00,0,0,0,0,,0,0,0,0
2004/11/2,16:15:00,0,0,0,0,,0,0,0,0
2004/11/2,16:30:00,0,0,0,0,,0,0,0,0
2004/11/2,16:45:00,0,0,0,0,,0,0,0,0
2004/11/2,17:00:00,0,0,0,0,,0,0,0,0
2004/11/2,17:15:00,0.461,0,0.15,0,,16.9,0,5.5,0
2004/11/2,17:30:00,0.22,0,0.239,0,,8.1,0,8.8,0
2004/11/2,17:45:00,0,0,0.032,0,,0,0,1.2,0
2004/11/2,18:00:00,0,0,0.088,0,,0,0,3.2,0
2004/11/2,18:15:00,0,0,0.381,0,,0,0,14,0
2004/11/2,18:30:00,0,0,0.265,0,,0,0,9.7,0
2004/11/2,18:45:00,0,0,0.268,0,,0,0,9.9,0
2004/11/2,19:00:00,0,0,0.207,0,,0,0,7.5,0
2004/11/2,19:15:00,0,0,0.235,0,,0,0,8.7,0
2004/11/2,19:30:00,0,0,0.236,0,,0,0,8.6,0
2004/11/2,19:45:00,0,0,0.214,0,,0,0,7.9,0
2004/11/2,20:00:00,0,0,0,0,,0,0,0,0
2004/11/2,20:15:00,0,0,0.053,0,,0,0,2,0
2004/11/2,20:30:00,0,0,0,0,,0,0,0,0
2004/11/2,20:45:00,0,0,0,0,,0,0,0,0
2004/11/2,21:00:00,0,0,0,0,,0,0,0,0
2004/11/2,21:15:00,0,0,0.063,0,,0,0,2.3,0
2004/11/2,21:30:00,0,0,0.018,0,,0,0,0.6,0
2004/11/2,21:45:00,0,0,0,0,,0,0,0,0
2004/11/2,22:00:00,0,0,0,0,,0,0,0,0
2004/11/2,22:15:00,0,0,0,0,,0,0,0,0
2004/11/2,22:30:00,0,0,0,0,,0,0,0,0
2004/11/2,22:45:00,0,0,0,0,,0,0,0,0
2004/11/2,23:00:00,0,0,0,0,,0,0,0,0
2004/11/2,23:15:00,0,0,0,0,,0,0,0,0
2004/11/2,23:30:00,0,0,0,0,,0,0,0,0
2004/11/2,23:45:00,0,0,0,0,,0,0,0,0
2004/11/3,0:00:00,0,0,0,0,,0,0,0,0
2004/11/3,0:15:00,0,0,0,0,,0,0,0,0
2004/11/3,0:30:00,0,0,0,0,,0,0,0,0
2004/11/3,0:45:00,0,0,0,0,,0,0,0,0
2004/11/3,1:00:00,0,0,0,0,,0,0,0,0
2004/11/3,1:15:00,0,0,0,0,,0,0,0,0
2004/11/3,1:30:00,0,0,0,0,,0,0,0,0
2004/11/3,1:45:00,0,0,0,0,,0,0,0,0
2004/11/3,2:00:00,0,0,0,0,,0,0,0,0
2004/11/3,2:15:00,0,0,0,0,,0,0,0,0
2004/11/3,2:30:00,0,0,0,0,,0,0,0,0
2004/11/3,2:45:00,0,0,0,0,,0,0,0,0
2004/11/3,3:00:00,0,0,0,0,,0,0,0,0
2004/11/3,3:15:00,0,0,0,0,,0,0,0,0
2004/11/3,3:30:00,0,0,0,0,,0,0,0,0
2004/11/3,3:45:00,0,0,0,0,,0,0,0,0
2004/11/3,4:00:00,0,0,0,0,,0,0,0,0
2004/11/3,4:15:00,0,0,0,0,,0,0,0,0
2004/11/3,4:30:00,0,0,0,0,,0,0,0,0
2004/11/3,4:45:00,0,0,0,0,,0,0,0,0
2004/11/3,5:00:00,0,0,0,0,,0,0,0,0
2004/11/3,5:15:00,0,0,0,0,,0,0,0,0
2004/11/3,5:30:00,0,0,0,0,,0,0,0,0
2004/11/3,5:45:00,0,0,0,0,,0,0,0,0
2004/11/3,6:00:00,0,0,0,0,,0,0,0,0
2004/11/3,6:15:00,0,0,0,0,,0,0,0,0
2004/11/3,6:30:00,0,0,0,0,,0,0,0,0
2004/11/3,6:45:00,0,0,0,0,,0,0,0,0
2004/11/3,7:00:00,0,0,0,0,,0,0,0,0
2004/11/3,7:15:00,0,0,0,0,,0,0,0,0
2004/11/3,7:30:00,0,0,0,0,,0,0,0,0
2004/11/3,7:45:00,0,0,0,0,,0,0,0,0
2004/11/3,8:00:00,0,0,0,0,,0,0,0,0
2004/11/3,8:15:00,0,0,0,0,,0,0,0,0
2004/11/3,8:30:00,0,0,0,0,,0,0,0,0
2004/11/3,8:45:00,0,0,0,0,,0,0,0,0
2004/11/3,9:00:00,0,0,0,0,,0,0,0,0
2004/11/3,9:15:00,0,0,0,0,,0,0,0,0
2004/11/3,9:30:00,0,0,0,0,,0,0,0,0
2004/11/3,9:45:00,0,0,0,0,,0,0,0,0
2004/11/3,10:00:00,0,0,0,0,,0,0,0,0
2004/11/3,10:15:00,0,0,0,0,,0,0,0,0
2004/11/3,10:30:00,0,0,0,0,,0,0,0,0
2004/11/3,10:45:00,0,0,0,0,,0,0,0,0
2004/11/3,11:00:00,0,0,0,0,,0,0,0,0
2004/11/3,11:15:00,0,0,0,0,,0,0,0,0
2004/11/3,11:30:00,0,0,0,0,,0,0,0,0
2004/11/3,11:45:00,0,0,0,0,,0,0,0,0
2004/11/3,12:00:00,0,0,0,0,,0,0,0,0
2004/11/3,12:15:00,0,0,0,0,,0,0,0,0
2004/11/3,12:30:00,0,0,0,0,,0,0,0,0
2004/11/3,12:45:00,0,0,0,0,,0,0,0,0
2004/11/3,13:00:00,0,0,0,0,,0,0,0,0
2004/11/3,13:15:00,0,0,0,0,,0,0,0,0
2004/11/3,13:30:00,0,0,0,0,,0,0,0,0
2004/11/3,13:45:00,0,0,0,0,,0,0,0,0
2004/11/3,14:00:00,0,0,0,0,,0,0,0,0
2004/11/3,14:15:00,0,0,0,0,,0,0,0,0
2004/11/3,14:30:00,0,0,0,0,,0,0,0,0
2004/11/3,14:45:00,0,0,0,0,,0,0,0,0
2004/11/3,15:00:00,0,0,0,0,,0,0,0,0
2004/11/3,15:15:00,0,0,0,0,,0,0,0,0
2004/11/3,15:30:00,0,0,0,0,,0,0,0,0
2004/11/3,15:45:00,0,0,0,0,,0,0,0,0
2004/11/3,16:00:00,0,0,0,0,,0,0,0,0
2004/11/3,16:15:00,0,0,0,0,,0,0,0,0
2004/11/3,16:30:00,0,0,0,0,,0,0,0,0
2004/11/3,16:45:00,0,0,0,0,,0,0,0,0
2004/11/3,17:00:00,0,0,0,0,,0,0,0,0
2004/11/3,17:15:00,0.635,0,0,0,,23.3,0,0,0
2004/11/3,17:30:00,0.282,0,0.181,0,,10.3,0,6.6,0
2004/11/3,17:45:00,0,0,0.129,0,,0,0,4.7,0
2004/11/3,18:00:00,0,0,0.014,0,,0,0,0.5,0
2004/11/3,18:15:00,0,0,0.074,0,,0,0,2.7,0
2004/11/3,18:30:00,0,0,0.098,0,,0,0,3.5,0
2004/11/3,18:45:00,0,0,0.061,0,,0,0,2.2,0
2004/11/3,19:00:00,0,0,0.031,0,,0,0,1.1,0
2004/11/3,19:15:00,0,0,0,0,,0,0,0,0
2004/11/3,19:30:00,0,0,0,0,,0,0,0,0
2004/11/3,19:45:00,0,0,0,0,,0,0,0,0
2004/11/3,20:00:00,0,0,0,0,,0,0,0,0
2004/11/3,20:15:00,0,0,0,0,,0,0,0,0
2004/11/3,20:30:00,0,0,0,0,,0,0,0,0
2004/11/3,20:45:00,0,0,0,0,,0,0,0,0
2004/11/3,21:00:00,0,0,0,0,,0,0,0,0
2004/11/3,21:15:00,0,0,0,0,,0,0,0,0
2004/11/3,21:30:00,0,0,0,0,,0,0,0,0
2004/11/3,21:45:00,0,0,0,0,,0,0,0,0
2004/11/3,22:00:00,0,0,0,0,,0,0,0,0
2004/11/3,22:15:00,0,0,0,0,,0,0,0,0
2004/11/3,22:30:00,0,0,0,0,,0,0,0,0
2004/11/3,22:45:00,0,0,0,0,,0,0,0,0
2004/11/3,23:00:00,0,0,0,0,,0,0,0,0
2004/11/3,23:15:00,0,0,0,0,,0,0,0,0
2004/11/3,23:30:00,0,0,0,0,,0,0,0,0
2004/11/3,23:45:00,0,0,0,0,,0,0,0,0
2004/11/4,0:00:00,0,0,0,0,,0,0,0,0
2004/11/4,0:15:00,0,0,0,0,,0,0,0,0
2004/11/4,0:30:00,0,0,0,0,,0,0,0,0
2004/11/4,0:45:00,0,0,0,0,,0,0,0,0
2004/11/4,1:00:00,0,0,0,0,,0,0,0,0
2004/11/4,1:15:00,0,0,0,0,,0,0,0,0
2004/11/4,1:30:00,0,0,0,0,,0,0,0,0
2004/11/4,1:45:00,0,0,0,0,,0,0,0,0
2004/11/4,2:00:00,0,0,0,0,,0,0,0,0
2004/11/4,2:15:00,0,0,0,0,,0,0,0,0
2004/11/4,2:30:00,0,0,0,0,,0,0,0,0
2004/11/4,2:45:00,0,0,0,0,,0,0,0,0
2004/11/4,3:00:00,0,0,0,0,,0,0,0,0
2004/11/4,3:15:00,0,0,0,0,,0,0,0,0
2004/11/4,3:30:00,0,0,0,0,,0,0,0,0
2004/11/4,3:45:00,0,0,0,0,,0,0,0,0
2004/11/4,4:00:00,0,0,0,0,,0,0,0,0
2004/11/4,4:15:00,0,0,0,0,,0,0,0,0
2004/11/4,4:30:00,0,0,0,0,,0,0,0,0
2004/11/4,4:45:00,0,0,0,0,,0,0,0,0
2004/11/4,5:00:00,0,0,0,0,,0,0,0,0
2004/11/4,5:15:00,0,0,0,0,,0,0,0,0
2004/11/4,5:30:00,0,0,0,0,,0,0,0,0
2004/11/4,5:45:00,0,0,0,0,,0,0,0,0
2004/11/4,6:00:00,0,0,0,0,,0,0,0,0
2004/11/4,6:15:00,0,0,0,0,,0,0,0,0
2004/11/4,6:30:00,0.162,0,0.069,0,,5.9,0,2.5,0
2004/11/4,6:45:00,0.166,0,0.19,0,,6.1,0,7,0
2004/11/4,7:00:00,0,0,0.268,0,,0,0,9.8,0
2004/11/4,7:15:00,0,0,0.216,0,,0,0,7.9,0
2004/11/4,7:30:00,0,0,0.205,0,,0,0,7.5,0
2004/11/4,7:45:00,0,0,0,0,,0,0,0,0
2004/11/4,8:00:00,0,0,0,0,,0,0,0,0
2004/11/4,8:15:00,0,0,0,0,,0,0,0,0
2004/11/4,8:30:00,0,0,0,0,,0,0,0,0
2004/11/4,8:45:00,0,0,0,0,,0,0,0,0
2004/11/4,9:00:00,0,0,0,0,,0,0,0,0
2004/11/4,9:15:00,0,0,0,0,,0,0,0,0
2004/11/4,9:30:00,0,0,0,0,,0,0,0,0
2004/11/4,9:45:00,0,0,0,0,,0,0,0,0
2004/11/4,10:00:00,0,0,0,0,,0,0,0,0
2004/11/4,10:15:00,0,0,0,0,,0,0,0,0
2004/11/4,10:30:00,0,0,0,0,,0,0,0,0
2004/11/4,10:45:00,0,0,0,0,,0,0,0,0
2004/11/4,11:00:00,0,0,0,0,,0,0,0,0
2004/11/4,11:15:00,0,0,0,0,,0,0,0,0
2004/11/4,11:30:00,0,0,0,0,,0,0,0,0
2004/11/4,11:45:00,0,0,0,0,,0,0,0,0
2004/11/4,12:00:00,0,0,0,0,,0,0,0,0
2004/11/4,12:15:00,0,0,0,0,,0,0,0,0
2004/11/4,12:30:00,0,0,0,0,,0,0,0,0
2004/11/4,12:45:00,0,0,0,0,,0,0,0,0
2004/11/4,13:00:00,0,0,0,0,,0,0,0,0
2004/11/4,13:15:00,0,0,0,0,,0,0,0,0
2004/11/4,13:30:00,0,0,0,0,,0,0,0,0
2004/11/4,13:45:00,0,0,0,0,,0,0,0,0
2004/11/4,14:00:00,0,0,0,0,,0,0,0,0
2004/11/4,14:15:00,0,0,0.003,0,,0,0,0.1,0
2004/11/4,14:30:00,0.16,0,0.295,0,,5.9,0,10.8,0
2004/11/4,14:45:00,0,0,0.263,0,,0,0,9.6,0
2004/11/4,15:00:00,0,0,0.232,0,,0,0,8.6,0
2004/11/4,15:15:00,0,0,0.213,0,,0,0,7.8,0
2004/11/4,15:30:00,0,0,0.196,0,,0,0,7.2,0
2004/11/4,15:45:00,0,0,0.174,0,,0,0,6.4,0
2004/11/4,16:00:00,0,0,0.181,0,,0,0,6.6,0
2004/11/4,16:15:00,0,0,0.207,0,,0,0,7.6,0
2004/11/4,16:30:00,0,0,0.069,0,,0,0,2.5,0
2004/11/4,16:45:00,0,0,0.048,0,,0,0,1.8,0
2004/11/4,17:00:00,0.588,0,0,0,,21.6,0,0,0
2004/11/4,17:15:00,0.152,0,0.082,0,,5.6,0,3,0
2004/11/4,17:30:00,0,0,0.045,0,,0,0,1.7,0
2004/11/4,17:45:00,0,0,0.074,0,,0,0,2.7,0
2004/11/4,18:00:00,0,0,0.034,0,,0,0,1.2,0
2004/11/4,18:15:00,0,0,0.001,0,,0,0,0.1,0
2004/11/4,18:30:00,0,0,0,0,,0,0,0,0
2004/11/4,18:45:00,0,0,0.058,0,,0,0,2.1,0
2004/11/4,19:00:00,0,0,0.037,0,,0,0,1.3,0
2004/11/4,19:15:00,0,0,0.137,0,,0,0,5.1,0
2004/11/4,19:30:00,0,0,0,0,,0,0,0,0
2004/11/4,19:45:00,0,0,0,0,,0,0,0,0
2004/11/4,20:00:00,0,0,0,0,,0,0,0,0
2004/11/4,20:15:00,0,0,0,0,,0,0,0,0
2004/11/4,20:30:00,0,0,0,0,,0,0,0,0
2004/11/4,20:45:00,0,0,0,0,,0,0,0,0
2004/11/4,21:00:00,0,0,0,0,,0,0,0,0
2004/11/4,21:15:00,0,0,0,0,,0,0,0,0
2004/11/4,21:30:00,0,0,0,0,,0,0,0,0
2004/11/4,21:45:00,0,0,0,0,,0,0,0,0
2004/11/4,22:00:00,0,0,0,0,,0,0,0,0
2004/11/4,22:15:00,0,0,0,0,,0,0,0,0
2004/11/4,22:30:00,0,0,0,0,,0,0,0,0
2004/11/4,22:45:00,0,0,0,0,,0,0,0,0
2004/11/4,23:00:00,0,0,0,0,,0,0,0,0
2004/11/4,23:15:00,0,0,0,0,,0,0,0,0
2004/11/4,23:30:00,0,0,0,0,,0,0,0,0
2004/11/4,23:45:00,0,0,0,0,,0,0,0,0
2004/11/5,0:00:00,0,0,0,0,,0,0,0,0
2004/11/5,0:15:00,0,0,0,0,,0,0,0,0
2004/11/5,0:30:00,0,0,0,0,,0,0,0,0
2004/11/5,0:45:00,0,0,0,0,,0,0,0,0
2004/11/5,1:00:00,0,0,0,0,,0,0,0,0
2004/11/5,1:15:00,0,0,0,0,,0,0,0,0
2004/11/5,1:30:00,0,0,0,0,,0,0,0,0
2004/11/5,1:45:00,0,0,0,0,,0,0,0,0
2004/11/5,2:00:00,0,0,0,0,,0,0,0,0
2004/11/5,2:15:00,0,0,0,0,,0,0,0,0
2004/11/5,2:30:00,0,0,0,0,,0,0,0,0
2004/11/5,2:45:00,0,0,0,0,,0,0,0,0
2004/11/5,3:00:00,0,0,0,0,,0,0,0,0
2004/11/5,3:15:00,0,0,0,0,,0,0,0,0
2004/11/5,3:30:00,0,0,0,0,,0,0,0,0
2004/11/5,3:45:00,0,0,0,0,,0,0,0,0
2004/11/5,4:00:00,0,0,0,0,,0,0,0,0
2004/11/5,4:15:00,0,0,0,0,,0,0,0,0
2004/11/5,4:30:00,0,0,0,0,,0,0,0,0
2004/11/5,4:45:00,0,0,0,0,,0,0,0,0
2004/11/5,5:00:00,0,0,0,0,,0,0,0,0
2004/11/5,5:15:00,0,0,0,0,,0,0,0,0
2004/11/5,5:30:00,0,0,0,0,,0,0,0,0
2004/11/5,5:45:00,0,0,0,0,,0,0,0,0
2004/11/5,6:00:00,0,0,0,0,,0,0,0,0
2004/11/5,6:15:00,0,0,0,0,,0,0,0,0
2004/11/5,6:30:00,0,0,0,0,,0,0,0,0
2004/11/5,6:45:00,0.324,0,0.146,0,,11.9,0,5.4,0
2004/11/5,7:00:00,0,0,0.302,0,,0,0,11.1,0
2004/11/5,7:15:00,0,0,0.21,0,,0,0,7.6,0
2004/11/5,7:30:00,0,0,0.043,0,,0,0,1.6,0
2004/11/5,7:45:00,0,0,0,0,,0,0,0,0
2004/11/5,8:00:00,0,0,0.044,0,,0,0,1.6,0
2004/11/5,8:15:00,0,0,0.018,0,,0,0,0.7,0
2004/11/5,8:30:00,0,0,0,0,,0,0,0,0
2004/11/5,8:45:00,0,0,0,0,,0,0,0,0
2004/11/5,9:00:00,0,0,0,0,,0,0,0,0
2004/11/5,9:15:00,0,0,0,0,,0,0,0,0
2004/11/5,9:30:00,0,0,0,0,,0,0,0,0
2004/11/5,9:45:00,0,0,0,0,,0,0,0,0
2004/11/5,10:00:00,0,0,0,0,,0,0,0,0
2004/11/5,10:15:00,0,0,0,0,,0,0,0,0
2004/11/5,10:30:00,0,0,0,0,,0,0,0,0
2004/11/5,10:45:00,0,0,0,0,,0,0,0,0
2004/11/5,11:00:00,0,0,0,0,,0,0,0,0
2004/11/5,11:15:00,0,0,0,0,,0,0,0,0
2004/11/5,11:30:00,0,0,0,0,,0,0,0,0
2004/11/5,11:45:00,0,0,0,0,,0,0,0,0
2004/11/5,12:00:00,0,0,0,0,,0,0,0,0
2004/11/5,12:15:00,0,0,0,0,,0,0,0,0
2004/11/5,12:30:00,0,0,0,0,,0,0,0,0
2004/11/5,12:45:00,0,0,0,0,,0,0,0,0
2004/11/5,13:00:00,0,0,0,0,,0,0,0,0
2004/11/5,13:15:00,0,0,0,0,,0,0,0,0
2004/11/5,13:30:00,0,0,0,0,,0,0,0,0
2004/11/5,13:45:00,0,0,0,0,,0,0,0,0
2004/11/5,14:00:00,0,0,0,0,,0,0,0,0
2004/11/5,14:15:00,0,0,0,0,,0,0,0,0
2004/11/5,14:30:00,0,0,0,0,,0,0,0,0
2004/11/5,14:45:00,0,0,0,0,,0,0,0,0
2004/11/5,15:00:00,0,0,0,0,,0,0,0,0
2004/11/5,15:15:00,0,0,0,0,,0,0,0,0
2004/11/5,15:30:00,0,0,0,0,,0,0,0,0
2004/11/5,15:45:00,0,0,0,0,,0,0,0,0
2004/11/5,16:00:00,0,0,0,0,,0,0,0,0
2004/11/5,16:15:00,0,0,0,0,,0,0,0,0
2004/11/5,16:30:00,0,0,0,0,,0,0,0,0
2004/11/5,16:45:00,0,0,0,0,,0,0,0,0
2004/11/5,17:00:00,0,0,0,0,,0,0,0,0
2004/11/5,17:15:00,0.152,0,0,0,,5.6,0,0,0
2004/11/5,17:30:00,0.612,0,0,0,,22.5,0,0,0
2004/11/5,17:45:00,0.173,0,0.058,0,,6.3,0,2.1,0
2004/11/5,18:00:00,0,0,0.059,0,,0,0,2.2,0
2004/11/5,18:15:00,0,0,0.033,0,,0,0,1.2,0
2004/11/5,18:30:00,0,0,0.031,0,,0,0,1.1,0
2004/11/5,18:45:00,0,0,0.046,0,,0,0,1.7,0
2004/11/5,19:00:00,0,0,0.03,0,,0,0,1.1,0
2004/11/5,19:15:00,0,0,0,0,,0,0,0,0
2004/11/5,19:30:00,0,0,0.056,0,,0,0,2,0
2004/11/5,19:45:00,0,0,0,0,,0,0,0,0
2004/11/5,20:00:00,0,0,0.057,0,,0,0,2.1,0
2004/11/5,20:15:00,0,0,0,0,,0,0,0,0
2004/11/5,20:30:00,0,0,0,0,,0,0,0,0
2004/11/5,20:45:00,0,0,0,0,,0,0,0,0
2004/11/5,21:00:00,0,0,0,0,,0,0,0,0
2004/11/5,21:15:00,0,0,0,0,,0,0,0,0
2004/11/5,21:30:00,0,0,0,0,,0,0,0,0
2004/11/5,21:45:00,0,0,0.062,0,,0,0,2.3,0
2004/11/5,22:00:00,0,0,0,0,,0,0,0,0
2004/11/5,22:15:00,0,0,0,0,,0,0,0,0
2004/11/5,22:30:00,0,0,0,0,,0,0,0,0
2004/11/5,22:45:00,0,0,0,0,,0,0,0,0
2004/11/5,23:00:00,0,0,0,0,,0,0,0,0
2004/11/5,23:15:00,0,0,0,0,,0,0,0,0
2004/11/5,23:30:00,0,0,0,0,,0,0,0,0
2004/11/5,23:45:00,0,0,0,0,,0,0,0,0
2004/11/6,0:00:00,0,0,0,0,,0,0,0,0
2004/11/6,0:15:00,0,0,0,0,,0,0,0,0
2004/11/6,0:30:00,0,0,0,0,,0,0,0,0
2004/11/6,0:45:00,0,0,0,0,,0,0,0,0
2004/11/6,1:00:00,0,0,0,0,,0,0,0,0
2004/11/6,1:15:00,0,0,0,0,,0,0,0,0
2004/11/6,1:30:00,0,0,0,0,,0,0,0,0
2004/11/6,1:45:00,0,0,0,0,,0,0,0,0
2004/11/6,2:00:00,0,0,0,0,,0,0,0,0
2004/11/6,2:15:00,0,0,0,0,,0,0,0,0
2004/11/6,2:30:00,0,0,0,0,,0,0,0,0
2004/11/6,2:45:00,0,0,0,0,,0,0,0,0
2004/11/6,3:00:00,0,0,0,0,,0,0,0,0
2004/11/6,3:15:00,0,0,0,0,,0,0,0,0
2004/11/6,3:30:00,0,0,0,0,,0,0,0,0
2004/11/6,3:45:00,0,0,0,0,,0,0,0,0
2004/11/6,4:00:00,0,0,0,0,,0,0,0,0
2004/11/6,4:15:00,0,0,0,0,,0,0,0,0
2004/11/6,4:30:00,0,0,0,0,,0,0,0,0
2004/11/6,4:45:00,0,0,0,0,,0,0,0,0
2004/11/6,5:00:00,0,0,0,0,,0,0,0,0
2004/11/6,5:15:00,0,0,0,0,,0,0,0,0
2004/11/6,5:30:00,0,0,0,0,,0,0,0,0
2004/11/6,5:45:00,0,0,0,0,,0,0,0,0
2004/11/6,6:00:00,0,0,0,0,,0,0,0,0
2004/11/6,6:15:00,0,0,0,0,,0,0,0,0
2004/11/6,6:30:00,0,0,0,0,,0,0,0,0
2004/11/6,6:45:00,0,0,0,0,,0,0,0,0
2004/11/6,7:00:00,0,0,0,0,,0,0,0,0
2004/11/6,7:15:00,0,0,0,0,,0,0,0,0
2004/11/6,7:30:00,0,0,0,0,,0,0,0,0
2004/11/6,7:45:00,0,0,0,0,,0,0,0,0
2004/11/6,8:00:00,0,0,0,0,,0,0,0,0
2004/11/6,8:15:00,0,0,0,0,,0,0,0,0
2004/11/6,8:30:00,0,0,0,0,,0,0,0,0
2004/11/6,8:45:00,0,0,0,0,,0,0,0,0
2004/11/6,9:00:00,0,0,0,0,,0,0,0,0
2004/11/6,9:15:00,0,0,0,0,,0,0,0,0
2004/11/6,9:30:00,0,0,0,0,,0,0,0,0
2004/11/6,9:45:00,0,0,0,0,,0,0,0,0
2004/11/6,10:00:00,0,0,0,0,,0,0,0,0
2004/11/6,10:15:00,0,0,0,0,,0,0,0,0
2004/11/6,10:30:00,0,0,0,0,,0,0,0,0
2004/11/6,10:45:00,0.267,0,0.188,0,,9.8,0,6.9,0
2004/11/6,11:00:00,0,0,0,0,,0,0,0,0
2004/11/6,11:15:00,0,0,0,0,,0,0,0,0
2004/11/6,11:30:00,0,0,0,0,,0,0,0,0
2004/11/6,11:45:00,0,0,0,0,,0,0,0,0
2004/11/6,12:00:00,0,0,0,0,,0,0,0,0
2004/11/6,12:15:00,0,0,0,0,,0,0,0,0
2004/11/6,12:30:00,0,0,0,0,,0,0,0,0
2004/11/6,12:45:00,0,0,0,0,,0,0,0,0
2004/11/6,13:00:00,0,0,0,0,,0,0,0,0
2004/11/6,13:15:00,0,0,0,0,,0,0,0,0
2004/11/6,13:30:00,0,0,0,0,,0,0,0,0
2004/11/6,13:45:00,0,0,0,0,,0,0,0,0
2004/11/6,14:00:00,0,0,0,0,,0,0,0,0
2004/11/6,14:15:00,0,0,0,0,,0,0,0,0
2004/11/6,14:30:00,0,0,0,0,,0,0,0,0
2004/11/6,14:45:00,0,0,0,0,,0,0,0,0
2004/11/6,15:00:00,0,0,0,0,,0,0,0,0
2004/11/6,15:15:00,0,0,0,0,,0,0,0,0
2004/11/6,15:30:00,0,0,0,0,,0,0,0,0
2004/11/6,15:45:00,0,0,0,0,,0,0,0,0
2004/11/6,16:00:00,0,0,0,0,,0,0,0,0
2004/11/6,16:15:00,0,0,0,0,,0,0,0,0
2004/11/6,16:30:00,0,0,0.028,0,,0,0,1,0
2004/11/6,16:45:00,0.656,0,0,0,,24.2,0,0,0
2004/11/6,17:00:00,0.216,0,0.099,0,,7.9,0,3.6,0
2004/11/6,17:15:00,0,0,0,0,,0,0,0,0
2004/11/6,17:30:00,0,0,0,0,,0,0,0,0
2004/11/6,17:45:00,0,0,0,0,,0,0,0,0
2004/11/6,18:00:00,0,0,0,0,,0,0,0,0
2004/11/6,18:15:00,0,0,0,0,,0,0,0,0
2004/11/6,18:30:00,0,0,0.074,0,,0,0,2.7,0
2004/11/6,18:45:00,0.151,0,0.233,0,,5.5,0,8.5,0
2004/11/6,19:00:00,0,0,0.222,0,,0,0,8.2,0
2004/11/6,19:15:00,0,0,0.093,0,,0,0,3.4,0
2004/11/6,19:30:00,0,0,0,0,,0,0,0,0
2004/11/6,19:45:00,0,0,0,0,,0,0,0,0
2004/11/6,20:00:00,0,0,0,0,,0,0,0,0
2004/11/6,20:15:00,0,0,0,0,,0,0,0,0
2004/11/6,20:30:00,0,0,0,0,,0,0,0,0
2004/11/6,20:45:00,0,0,0,0,,0,0,0,0
2004/11/6,21:00:00,0,0,0,0,,0,0,0,0
2004/11/6,21:15:00,0,0,0,0,,0,0,0,0
2004/11/6,21:30:00,0,0,0,0,,0,0,0,0
2004/11/6,21:45:00,0,0,0,0,,0,0,0,0
2004/11/6,22:00:00,0,0,0,0,,0,0,0,0
2004/11/6,22:15:00,0,0,0.141,0,,0,0,5.2,0
2004/11/6,22:30:00,0.166,0,0.178,0,,6.1,0,6.6,0
2004/11/6,22:45:00,0,0,0.133,0,,0,0,4.9,0
2004/11/6,23:00:00,0,0,0.023,0,,0,0,0.9,0
2004/11/6,23:15:00,0,0,0,0,,0,0,0,0
2004/11/6,23:30:00,0,0,0,0,,0,0,0,0
2004/11/6,23:45:00,0,0,0,0,,0,0,0,0
2004/11/7,0:00:00,0,0,0,0,,0,0,0,0
2004/11/7,0:15:00,0,0,0,0,,0,0,0,0
2004/11/7,0:30:00,0,0,0,0,,0,0,0,0
2004/11/7,0:45:00,0,0,0,0,,0,0,0,0
2004/11/7,1:00:00,0,0,0,0,,0,0,0,0
2004/11/7,1:15:00,0,0,0,0,,0,0,0,0
2004/11/7,1:30:00,0,0,0,0,,0,0,0,0
2004/11/7,1:45:00,0,0,0,0,,0,0,0,0
2004/11/7,2:00:00,0,0,0,0,,0,0,0,0
2004/11/7,2:15:00,0,0,0,0,,0,0,0,0
2004/11/7,2:30:00,0,0,0,0,,0,0,0,0
2004/11/7,2:45:00,0,0,0,0,,0,0,0,0
2004/11/7,3:00:00,0,0,0,0,,0,0,0,0
2004/11/7,3:15:00,0,0,0,0,,0,0,0,0
2004/11/7,3:30:00,0,0,0,0,,0,0,0,0
2004/11/7,3:45:00,0,0,0,0,,0,0,0,0
2004/11/7,4:00:00,0,0,0,0,,0,0,0,0
2004/11/7,4:15:00,0,0,0,0,,0,0,0,0
2004/11/7,4:30:00,0,0,0,0,,0,0,0,0
2004/11/7,4:45:00,0,0,0,0,,0,0,0,0
2004/11/7,5:00:00,0,0,0,0,,0,0,0,0
2004/11/7,5:15:00,0,0,0,0,,0,0,0,0
2004/11/7,5:30:00,0,0,0,0,,0,0,0,0
2004/11/7,5:45:00,0,0,0,0,,0,0,0,0
2004/11/7,6:00:00,0,0,0,0,,0,0,0,0
2004/11/7,6:15:00,0,0,0,0,,0,0,0,0
2004/11/7,6:30:00,0,0,0,0,,0,0,0,0
2004/11/7,6:45:00,0,0,0,0,,0,0,0,0
2004/11/7,7:00:00,0,0,0,0,,0,0,0,0
2004/11/7,7:15:00,0,0,0,0,,0,0,0,0
2004/11/7,7:30:00,0.181,0,0,0,,6.7,0,0,0
2004/11/7,7:45:00,0,0,0.044,0,,0,0,1.6,0
2004/11/7,8:00:00,0,0,0,0,,0,0,0,0
2004/11/7,8:15:00,0,0,0,0,,0,0,0,0
2004/11/7,8:30:00,0,0,0,0,,0,0,0,0
2004/11/7,8:45:00,0,0,0,0,,0,0,0,0
2004/11/7,9:00:00,0,0,0,0,,0,0,0,0
2004/11/7,9:15:00,0,0,0,0,,0,0,0,0
2004/11/7,9:30:00,0,0,0,0,,0,0,0,0
2004/11/7,9:45:00,0,0,0,0,,0,0,0,0
2004/11/7,10:00:00,0,0,0,0,,0,0,0,0
2004/11/7,10:15:00,0,0,0,0,,0,0,0,0
2004/11/7,10:30:00,0,0,0,0,,0,0,0,0
2004/11/7,10:45:00,0,0,0,0,,0,0,0,0
2004/11/7,11:00:00,0,0,0,0,,0,0,0,0
2004/11/7,11:15:00,0,0,0,0,,0,0,0,0
2004/11/7,11:30:00,0,0,0,0,,0,0,0,0
2004/11/7,11:45:00,0,0,0,0,,0,0,0,0
2004/11/7,12:00:00,0,0,0,0,,0,0,0,0
2004/11/7,12:15:00,0,0,0,0,,0,0,0,0
2004/11/7,12:30:00,0,0,0,0,,0,0,0,0
2004/11/7,12:45:00,0,0,0,0,,0,0,0,0
2004/11/7,13:00:00,0,0,0,0,,0,0,0,0
2004/11/7,13:15:00,0,0,0,0,,0,0,0,0
2004/11/7,13:30:00,0,0,0,0,,0,0,0,0
2004/11/7,13:45:00,0,0,0,0,,0,0,0,0
2004/11/7,14:00:00,0,0,0,0,,0,0,0,0
2004/11/7,14:15:00,0,0,0,0,,0,0,0,0
2004/11/7,14:30:00,0,0,0,0,,0,0,0,0